When you browse on this site, cookies collect data to enhance your experience and personalize the content and advertising you see.
Visit our Privacy Policy to learn more. By continuing to use the site, you agree to this use of cookies and data.
  • In Spain
  • List of Countries
  • For 7 days
  • Water Temperature
  • Satellite Maps
  • Weather Map
  • Weather Widgets
  • user-avatar
    Login

    Hourly Weather Abomey

    Today, 16 December, Sunday

    Time Temperature Precipitation Wind Pressure Humidity
    00:00 +27°C° 0 mm 1 mps 740 mmHg 80%
    01:00 +27°C° 0 mm 1 mps 740 mmHg 82%
    02:00 +26°C° 0 mm 1 mps 740 mmHg 85%
    03:00 +26°C° 0 mm 1 mps 740 mmHg 87%
    04:00 +26°C° 0 mm 1 mps 740 mmHg 89%
    05:00 +25°C° 0 mm 1 mps 740 mmHg 90%
    06:00 +25°C° 0 mm 1 mps 740 mmHg 92%
    07:00 +27°C° 0 mm 1 mps 740 mmHg 82%
    08:00 +29°C° 0 mm 2 mps 741 mmHg 71%
    09:00 +31°C° 0 mm 2 mps 741 mmHg 61%
    10:00 +34°C° 0 mm 1 mps 741 mmHg 50%
    11:00 +37°C° 0 mm 1 mps 740 mmHg 38%
    12:00 +38°C° 0 mm 0 mps 740 mmHg 27%
    13:00 +41°C° 0 mm 1 mps 740 mmHg 25%
    14:00 +40°C° 0 mm 1 mps 739 mmHg 24%
    15:00 +40°C° 0 mm 2 mps 739 mmHg 23%
    16:00 +38°C° 0 mm 2 mps 739 mmHg 30%
    17:00 +36°C° 0 mm 3 mps 739 mmHg 37%
    18:00 +34°C° 0 mm 3 mps 739 mmHg 44%
    19:00 +33°C° 0 mm 3 mps 739 mmHg 54%
    20:00 +30°C° 0 mm 3 mps 740 mmHg 64%
    21:00 +29°C° 0 mm 3 mps 740 mmHg 74%
    22:00 +28°C° 0 mm 3 mps 740 mmHg 75%
    23:00 +28°C° 0 mm 3 mps 740 mmHg 76%

    Tomorrow, 17 December, Monday

    Time Temperature Precipitation Wind Pressure Humidity
    00:00 +28°C° 0 mm 3 mps 740 mmHg 77%
    01:00 +28°C° 0 mm 2 mps 740 mmHg 79%
    02:00 +27°C° 0 mm 2 mps 739 mmHg 81%
    03:00 +27°C° 0 mm 2 mps 739 mmHg 84%
    04:00 +26°C° 0 mm 1 mps 739 mmHg 85%
    05:00 +26°C° 0 mm 1 mps 739 mmHg 87%
    06:00 +26°C° 0 mm 1 mps 740 mmHg 89%
    07:00 +27°C° 0 mm 1 mps 740 mmHg 80%
    08:00 +29°C° 0 mm 2 mps 740 mmHg 72%
    09:00 +31°C° 0 mm 2 mps 741 mmHg 63%
    10:00 +33°C° 0 mm 1 mps 741 mmHg 54%
    11:00 +36°C° 0 mm 1 mps 740 mmHg 44%
    12:00 +39°C° 0 mm 1 mps 740 mmHg 34%
    13:00 +39°C° 0 mm 1 mps 739 mmHg 32%
    14:00 +39°C° 0 mm 1 mps 739 mmHg 29%
    15:00 +39°C° 0 mm 1 mps 738 mmHg 27%
    16:00 +37°C° 0 mm 1 mps 738 mmHg 31%
    17:00 +36°C° 0 mm 2 mps 738 mmHg 36%
    18:00 +35°C° 0 mm 2 mps 738 mmHg 40%
    19:00 +33°C° 0 mm 3 mps 739 mmHg 50%
    20:00 +31°C° 0 mm 3 mps 739 mmHg 59%
    21:00 +30°C° 0 mm 3 mps 740 mmHg 69%
    22:00 +29°C° 0 mm 3 mps 740 mmHg 71%
    23:00 +29°C° 0 mm 3 mps 740 mmHg 73%

    Day after tomorrow, 18 December, Tuesday

    Time Temperature Precipitation Wind Pressure Humidity
    00:00 +28°C° 0 mm 3 mps 740 mmHg 75%
    01:00 +28°C° 0 mm 2 mps 739 mmHg 77%
    02:00 +28°C° 0 mm 2 mps 739 mmHg 78%
    03:00 +27°C° 0 mm 2 mps 739 mmHg 80%
    04:00 +27°C° 0 mm 1 mps 739 mmHg 81%
    05:00 +27°C° 0 mm 1 mps 739 mmHg 83%
    06:00 +26°C° 0 mm 1 mps 739 mmHg 85%
    07:00 +28°C° 0 mm 1 mps 740 mmHg 75%
    08:00 +30°C° 0 mm 2 mps 740 mmHg 66%
    09:00 +32°C° 0 mm 2 mps 741 mmHg 57%
    10:00 +35°C° 0 mm 1 mps 740 mmHg 48%
    11:00 +37°C° 0 mm 1 mps 740 mmHg 39%
    12:00 +38°C° 0 mm 0 mps 739 mmHg 29%
    13:00 +40°C° 0 mm 1 mps 739 mmHg 29%
    14:00 +40°C° 0 mm 1 mps 738 mmHg 29%
    15:00 +39°C° 0 mm 2 mps 737 mmHg 28%
    16:00 +38°C° 0 mm 2 mps 738 mmHg 35%
    17:00 +36°C° 0 mm 3 mps 738 mmHg 41%
    18:00 +34°C° 0 mm 3 mps 738 mmHg 48%
    19:00 +33°C° 0.1 mm 3 mps 739 mmHg 56%
    20:00 +31°C° 0.1 mm 3 mps 739 mmHg 64%
    21:00 +29°C° 0.1 mm 4 mps 740 mmHg 72%
    22:00 +29°C° 0 mm 3 mps 740 mmHg 73%
    23:00 +29°C° 0 mm 3 mps 740 mmHg 73%

    19 December, Wednesday

    Time Temperature Precipitation Wind Pressure Humidity
    00:00 +28°C° 0 mm 3 mps 740 mmHg 74%
    01:00 +28°C° 0.1 mm 3 mps 739 mmHg 77%
    02:00 +28°C° 0.1 mm 2 mps 739 mmHg 79%
    03:00 +27°C° 0.1 mm 2 mps 739 mmHg 82%
    04:00 +27°C° 0 mm 2 mps 739 mmHg 83%
    05:00 +27°C° 0 mm 1 mps 739 mmHg 85%
    06:00 +26°C° 0 mm 1 mps 740 mmHg 86%
    07:00 +28°C° 0 mm 2 mps 740 mmHg 78%
    08:00 +30°C° 0 mm 2 mps 741 mmHg 69%
    09:00 +31°C° 0 mm 2 mps 742 mmHg 60%
    10:00 +35°C° 0 mm 2 mps 741 mmHg 51%
    11:00 +36°C° 0 mm 1 mps 740 mmHg 42%
    12:00 +39°C° 0 mm 1 mps 740 mmHg 33%
    13:00 +39°C° 0 mm 1 mps 739 mmHg 32%
    14:00 +39°C° 0 mm 1 mps 738 mmHg 30%
    15:00 +39°C° 0 mm 1 mps 737 mmHg 29%
    16:00 +37°C° 0 mm 2 mps 738 mmHg 35%
    17:00 +36°C° 0 mm 2 mps 738 mmHg 41%
    18:00 +34°C° 0 mm 3 mps 738 mmHg 47%
    19:00 +33°C° 0 mm 3 mps 738 mmHg 55%
    20:00 +31°C° 0 mm 3 mps 739 mmHg 64%
    21:00 +29°C° 0 mm 4 mps 740 mmHg 73%
    22:00 +29°C° 0 mm 3 mps 739 mmHg 74%
    23:00 +28°C° 0 mm 3 mps 739 mmHg 75%

    20 December, Thursday

    Time Temperature Precipitation Wind Pressure Humidity
    00:00 +28°C° 0 mm 3 mps 739 mmHg 77%
    01:00 +28°C° 0.3 mm 2 mps 739 mmHg 79%
    02:00 +27°C° 0.3 mm 2 mps 739 mmHg 81%
    03:00 +27°C° 0.3 mm 1 mps 738 mmHg 83%
    04:00 +27°C° 0.2 mm 2 mps 739 mmHg 83%
    05:00 +27°C° 0.2 mm 2 mps 739 mmHg 84%
    06:00 +26°C° 0.2 mm 2 mps 739 mmHg 85%
    07:00 +28°C° 0 mm 2 mps 740 mmHg 77%
    08:00 +30°C° 0 mm 2 mps 740 mmHg 69%
    09:00 +31°C° 0 mm 2 mps 741 mmHg 61%
    10:00 +35°C° 0 mm 2 mps 740 mmHg 52%
    11:00 +36°C° 0 mm 1 mps 740 mmHg 43%
    12:00 +37°C° 0 mm 0 mps 739 mmHg 34%
    13:00 +39°C° 0 mm 1 mps 739 mmHg 34%
    14:00 +37°C° 0 mm 1 mps 738 mmHg 34%
    15:00 +37°C° 0 mm 1 mps 737 mmHg 34%
    16:00 +37°C° 0 mm 2 mps 738 mmHg 37%
    17:00 +35°C° 0 mm 2 mps 738 mmHg 41%
    18:00 +34°C° 0 mm 2 mps 738 mmHg 44%
    19:00 +33°C° 0 mm 3 mps 739 mmHg 52%
    20:00 +31°C° 0 mm 3 mps 739 mmHg 60%
    21:00 +29°C° 0 mm 4 mps 740 mmHg 68%
    22:00 +29°C° 0 mm 3 mps 740 mmHg 70%
    23:00 +28°C° 0 mm 3 mps 739 mmHg 72%

    21 December, Friday

    Time Temperature Precipitation Wind Pressure Humidity
    00:00 +28°C° 0 mm 3 mps 739 mmHg 74%
    01:00 +28°C° 0.1 mm 2 mps 739 mmHg 77%
    02:00 +27°C° 0.1 mm 2 mps 739 mmHg 79%
    03:00 +27°C° 0.1 mm 1 mps 738 mmHg 81%
    04:00 +27°C° 0 mm 1 mps 739 mmHg 83%
    05:00 +26°C° 0 mm 1 mps 739 mmHg 84%
    06:00 +26°C° 0 mm 1 mps 739 mmHg 86%
    07:00 +28°C° 0 mm 2 mps 740 mmHg 78%
    08:00 +29°C° 0 mm 2 mps 740 mmHg 70%
    09:00 +31°C° 0 mm 2 mps 741 mmHg 61%
    10:00 +34°C° 0 mm 2 mps 740 mmHg 53%
    11:00 +35°C° 0 mm 1 mps 740 mmHg 45%
    12:00 +39°C° 0 mm 1 mps 739 mmHg 36%
    13:00 +37°C° 0 mm 1 mps 739 mmHg 36%
    14:00 +37°C° 0 mm 1 mps 738 mmHg 36%
    15:00 +36°C° 0 mm 1 mps 737 mmHg 35%
    16:00 +36°C° 0 mm 2 mps 737 mmHg 40%
    17:00 +35°C° 0 mm 2 mps 738 mmHg 44%
    18:00 +34°C° 0 mm 3 mps 738 mmHg 48%
    19:00 +31°C° 0 mm 3 mps 738 mmHg 55%
    20:00 +30°C° 0 mm 3 mps 739 mmHg 63%
    21:00 +29°C° 0 mm 3 mps 739 mmHg 70%
    22:00 +29°C° 0 mm 3 mps 739 mmHg 72%
    23:00 +28°C° 0 mm 3 mps 739 mmHg 73%
    Show more